Stanton, MN

12:33 PM CST on December 15, 2019 (GMT -0600)
Stanton

Weather History for KSYN - October, 2019

Change the Weather History Date:

Wednesday, October 2, 2019

  Actual Average (WUND) Record (WUND)
Temperature  
Mean Temperature 50 °F -  
Max Temperature 51 °F - - (-1)
Min Temperature 48 °F - - (-1)
Degree Days  
Heating Degree Days 16    
Moisture  
Dew Point 48 °F    
Average Humidity 93    
Maximum Humidity 97    
Minimum Humidity 84    
Precipitation  
Precipitation 0.37 in - - ()
Sea Level Pressure  
Sea Level Pressure 30.01 in    
Wind  
Wind Speed 10 mph ()    
Max Wind Speed 16 mph    
Max Gust Speed 22 mph    
Visibility 7.2 miles    
Events Rain    
Averages and records for this station are not official NWS values.
T = Trace of Precipitation, MM = Missing Value Source: Averaged Metar Reports

Daily Weather History Graph

Daily Weather History Graph

Search for Another Location

Airport or City:

Astronomy

Oct. 02, 2019 Rise Set
Actual Time 7:10 AM CDT 6:51 PM CDT
Civil Twilight 6:41 AM CDT 7:20 PM CDT
Nautical Twilight 6:08 AM CDT 7:53 PM CDT
Astronomical Twilight 5:33 AM CDT 8:27 PM CDT
Moon 11:46 AM CDT (10/2) 9:35 PM CDT (10/2)
Length of Visible Light 12h 38m
Length of Day
11h 40m
Waxing Crescent, 20% of the Moon is Illuminated
Oct 2
Waxing Crescent
Oct 5
First Quarter
Oct 13
Full
Oct 21
Last Quarter
Oct 27
New

Hourly Weather History & Observations

Time (CDT) Temp. Dew Point Humidity Pressure Visibility Wind Dir Wind Speed Gust Speed Precip Events Conditions
12:15 AM 50.5 °F 48.4 °F 92% 29.99 in 10.0 mi NNE 11.5 mph - N/A   Overcast
12:35 AM 50.5 °F 48.4 °F 92% 29.98 in 10.0 mi NNE 11.5 mph 18.4 mph N/A   Overcast
12:36 AM 50.5 °F 48.4 °F 92% 29.98 in 10.0 mi NNE 11.5 mph 18.4 mph N/A   Overcast
12:55 AM 50.5 °F 48.2 °F 92% 29.98 in 10.0 mi NNE 11.5 mph 19.6 mph N/A   Overcast
1:15 AM 50.5 °F 48.0 °F 91% 29.99 in 10.0 mi NNE 13.8 mph 21.9 mph N/A   Overcast
1:35 AM 50.4 °F 48.2 °F 92% 30.00 in 10.0 mi NNE 12.7 mph 20.7 mph N/A   Overcast
1:36 AM 50.4 °F 48.2 °F 92% 30.00 in 10.0 mi NNE 11.5 mph 20.7 mph N/A   Overcast
1:55 AM 50.0 °F 48.2 °F 94% 30.01 in 4.0 mi NNE 13.8 mph - N/A   Drizzle
1:56 AM 50.0 °F 48.2 °F 94% 30.01 in 4.0 mi NNE 12.7 mph - N/A   Drizzle
2:15 AM 49.8 °F 48.2 °F 94% 30.01 in 5.0 mi NE 12.7 mph - N/A Rain Light Rain
2:16 AM 49.6 °F 48.2 °F 95% 30.01 in 5.0 mi NE 12.7 mph - N/A Rain Light Rain
2:35 AM 49.6 °F 48.2 °F 95% 30.01 in 5.0 mi NNE 15.0 mph 20.7 mph N/A   Light Drizzle
2:55 AM 49.5 °F 48.2 °F 95% 30.00 in 5.0 mi NNE 12.7 mph 19.6 mph N/A Rain Rain
2:56 AM 49.5 °F 48.2 °F 95% 30.00 in 5.0 mi NNE 15.0 mph 19.6 mph N/A Rain Rain
3:15 AM 49.5 °F 48.2 °F 95% 30.00 in 5.0 mi NNE 12.7 mph 18.4 mph 0.01 in Rain Rain
3:16 AM 49.5 °F 48.2 °F 95% 30.00 in 5.0 mi NNE 12.7 mph 18.4 mph 0.01 in Rain Rain
3:35 AM 49.5 °F 48.0 °F 95% 30.00 in 5.0 mi NNE 11.5 mph - 0.01 in Rain Rain
3:55 AM 49.5 °F 47.8 °F 94% 30.00 in 7.0 mi NNE 10.4 mph 17.3 mph 0.01 in   Light Drizzle
4:15 AM 49.3 °F 47.5 °F 94% 30.00 in 10.0 mi NNE 16.1 mph 20.7 mph N/A   Overcast
4:35 AM 49.5 °F 47.7 °F 94% 30.01 in 10.0 mi NNE 16.1 mph 19.6 mph N/A   Overcast
4:55 AM 49.5 °F 47.5 °F 93% 30.00 in 10.0 mi NNE 10.4 mph 19.6 mph N/A   Overcast
4:56 AM 49.5 °F 47.5 °F 93% 30.01 in 10.0 mi NNE 11.5 mph 19.6 mph N/A   Overcast
5:15 AM 49.3 °F 47.3 °F 93% 30.02 in 10.0 mi NNE 11.5 mph - N/A   Overcast
5:16 AM 49.3 °F 47.3 °F 93% 30.02 in 10.0 mi NNE 11.5 mph - N/A   Overcast
5:35 AM 49.3 °F 47.3 °F 93% 30.02 in 10.0 mi NNE 12.7 mph 16.1 mph N/A   Overcast
5:36 AM 49.3 °F 47.3 °F 93% 30.02 in 10.0 mi NNE 11.5 mph 16.1 mph N/A   Overcast
5:55 AM 49.3 °F 47.3 °F 93% 30.03 in 10.0 mi NNE 10.4 mph 16.1 mph N/A   Overcast
6:15 AM 49.3 °F 47.3 °F 93% 30.03 in 10.0 mi NNE 10.4 mph 17.3 mph N/A   Overcast
6:16 AM 49.5 °F 47.3 °F 92% 30.03 in 10.0 mi NNE 11.5 mph 17.3 mph N/A   Overcast
6:35 AM 49.5 °F 47.3 °F 92% 30.03 in 10.0 mi NNE 12.7 mph - N/A   Overcast
6:55 AM 49.5 °F 47.3 °F 92% 30.04 in 10.0 mi NNE 11.5 mph 16.1 mph N/A   Overcast
6:56 AM 49.5 °F 47.3 °F 92% 30.04 in 10.0 mi NNE 10.4 mph 16.1 mph N/A   Overcast
7:15 AM 49.5 °F 47.5 °F 93% 30.03 in 10.0 mi NNE 9.2 mph - N/A   Overcast
7:16 AM 49.5 °F 47.5 °F 93% 30.03 in 10.0 mi NNE 10.4 mph - N/A   Overcast
7:35 AM 49.6 °F 47.7 °F 93% 30.03 in 10.0 mi NNE 9.2 mph - N/A   Overcast
7:55 AM 49.8 °F 47.8 °F 93% 30.06 in 10.0 mi NNE 8.1 mph - N/A   Overcast
8:15 AM 50.0 °F 47.8 °F 92% 30.06 in 10.0 mi NNE 8.1 mph - N/A   Overcast
8:35 AM 50.2 °F 47.8 °F 92% 30.06 in 10.0 mi NNE 11.5 mph - N/A   Overcast
8:36 AM 50.2 °F 47.8 °F 92% 30.06 in 10.0 mi NNE 9.2 mph - N/A   Overcast
8:55 AM 50.4 °F 48.2 °F 92% 30.06 in 10.0 mi NNE 10.4 mph - N/A   Overcast
9:15 AM 50.9 °F 48.0 °F 90% 30.06 in 10.0 mi NE 10.4 mph - N/A   Overcast
9:35 AM 50.9 °F 47.7 °F 89% 30.05 in 10.0 mi ENE 11.5 mph - N/A   Overcast
9:36 AM 50.9 °F 47.7 °F 89% 30.05 in 10.0 mi NE 11.5 mph - N/A   Overcast
9:55 AM 50.9 °F 47.7 °F 89% 30.05 in 10.0 mi NE 10.4 mph 16.1 mph N/A   Overcast
9:56 AM 50.9 °F 47.8 °F 89% 30.05 in 10.0 mi NE 10.4 mph 16.1 mph N/A   Overcast
10:15 AM 50.9 °F 48.2 °F 90% 30.04 in 7.0 mi ENE 12.7 mph - N/A   Overcast
10:35 AM 51.1 °F 47.7 °F 88% 30.04 in 10.0 mi ENE 12.7 mph - N/A   Overcast
10:36 AM 51.3 °F 47.7 °F 87% 30.04 in 10.0 mi ENE 12.7 mph - N/A   Overcast
10:55 AM 51.4 °F 47.7 °F 87% 30.04 in 10.0 mi ENE 9.2 mph 18.4 mph N/A   Overcast
11:15 AM 51.4 °F 47.3 °F 86% 30.04 in 10.0 mi ENE 10.4 mph 17.3 mph N/A   Overcast
11:16 AM 51.4 °F 47.5 °F 86% 30.04 in 10.0 mi ENE 9.2 mph 17.3 mph N/A   Overcast
11:35 AM 51.1 °F 46.8 °F 85% 30.04 in 10.0 mi ENE 13.8 mph 19.6 mph N/A   Overcast
11:55 AM 51.1 °F 46.8 °F 85% 30.04 in 10.0 mi ENE 12.7 mph - N/A   Overcast
11:56 AM 51.1 °F 46.8 °F 85% 30.04 in 10.0 mi ENE 9.2 mph - N/A   Overcast
12:15 PM 51.1 °F 46.6 °F 85% 30.04 in 10.0 mi ENE 13.8 mph 18.4 mph N/A   Overcast
12:16 PM 51.3 °F 46.6 °F 84% 30.04 in 10.0 mi ENE 10.4 mph 18.4 mph N/A   Overcast
12:35 PM 50.9 °F 46.6 °F 85% 30.05 in 7.0 mi ENE 9.2 mph 20.7 mph N/A Rain Rain
12:36 PM 50.7 °F 46.8 °F 86% 30.05 in 7.0 mi ENE 9.2 mph 20.7 mph N/A   Drizzle
12:55 PM 50.0 °F 47.1 °F 90% 30.04 in 3.0 mi ENE 10.4 mph 17.3 mph N/A   Drizzle
1:15 PM 49.6 °F 47.8 °F 94% 30.03 in 4.0 mi NE 10.4 mph - 0.01 in Rain Rain
1:35 PM 49.5 °F 47.5 °F 93% 30.05 in 3.0 mi NNE 5.8 mph - 0.05 in Rain Rain
1:36 PM 49.5 °F 47.5 °F 93% 30.05 in 3.0 mi NNE 5.8 mph - 0.05 in Rain Rain
1:55 PM 49.5 °F 47.8 °F 94% 30.06 in 3.0 mi NNE 11.5 mph - 0.10 in Rain Heavy Rain
2:15 PM 49.1 °F 47.5 °F 94% 30.05 in 3.0 mi NE 9.2 mph - 0.04 in Rain Light Rain
2:35 PM 49.3 °F 48.0 °F 95% 30.03 in 4.0 mi NE 10.4 mph - 0.08 in Rain Rain
2:36 PM 49.3 °F 48.0 °F 95% 30.03 in 5.0 mi NE 10.4 mph - 0.08 in Rain Rain
2:55 PM 49.1 °F 47.5 °F 94% 30.02 in 7.0 mi NE 12.7 mph - 0.11 in Rain Rain
3:15 PM 49.1 °F 47.5 °F 94% 30.02 in 10.0 mi NE 11.5 mph 19.6 mph 0.02 in Rain Light Rain
3:35 PM 49.1 °F 47.3 °F 93% 30.03 in 7.0 mi NNE 12.7 mph 18.4 mph 0.03 in Rain Rain
3:36 PM 49.1 °F 47.3 °F 93% 30.03 in 7.0 mi NNE 13.8 mph 18.4 mph 0.03 in Rain Rain
3:55 PM 49.1 °F 47.7 °F 95% 30.02 in 5.0 mi NE 13.8 mph - 0.06 in Rain Light Rain
3:56 PM 49.1 °F 47.5 °F 94% 30.01 in 5.0 mi NE 11.5 mph - 0.06 in Rain Light Rain
4:15 PM 49.1 °F 47.3 °F 93% 30.00 in 3.0 mi ENE 12.7 mph 18.4 mph 0.01 in Rain Light Rain
4:35 PM 49.1 °F 47.3 °F 93% 29.99 in 5.0 mi ENE 10.4 mph - 0.02 in Rain Rain
4:36 PM 49.1 °F 47.3 °F 93% 29.99 in 5.0 mi ENE 9.2 mph - 0.02 in Rain Rain
4:55 PM 49.1 °F 47.3 °F 93% 29.98 in 10.0 mi ENE 11.5 mph - 0.02 in   Drizzle
5:15 PM 48.9 °F 46.9 °F 93% 29.98 in 7.0 mi East 13.8 mph 18.4 mph 0.02 in Rain Light Rain
5:16 PM 48.9 °F 46.9 °F 93% 29.98 in 7.0 mi East 12.7 mph 18.4 mph 0.02 in Rain Rain
5:35 PM 49.1 °F 47.3 °F 93% 29.97 in 5.0 mi ENE 11.5 mph - 0.06 in Rain Light Rain
5:55 PM 49.1 °F 47.3 °F 93% 29.97 in 7.0 mi ENE 12.7 mph 18.4 mph 0.06 in   Light Drizzle
6:15 PM 49.1 °F 46.9 °F 92% 29.99 in 10.0 mi ENE 9.2 mph - N/A   Light Drizzle
6:16 PM 49.1 °F 46.9 °F 92% 29.99 in 10.0 mi ENE 9.2 mph - N/A   Overcast
6:35 PM 49.1 °F 47.1 °F 93% 29.99 in 10.0 mi ENE 9.2 mph - N/A   Overcast
6:36 PM 49.1 °F 47.1 °F 93% 29.99 in 10.0 mi ENE 10.4 mph - N/A   Overcast
6:55 PM 48.7 °F 47.1 °F 94% 29.99 in 4.0 mi ENE 6.9 mph - N/A   Overcast
7:15 PM 48.6 °F 47.1 °F 95% 29.99 in 5.0 mi NE 8.1 mph - N/A   Drizzle
7:35 PM 48.7 °F 47.3 °F 95% 29.98 in 5.0 mi NE 8.1 mph - 0.01 in Rain Rain
7:55 PM 48.6 °F 47.3 °F 95% 29.98 in 3.0 mi ENE 8.1 mph - 0.01 in   Drizzle
7:56 PM 48.6 °F 47.3 °F 95% 29.98 in 3.0 mi ENE 6.9 mph - 0.01 in   Drizzle
8:15 PM 48.6 °F 47.5 °F 96% 29.98 in 4.0 mi NE 5.8 mph - N/A   Light Drizzle
8:16 PM 48.6 °F 47.5 °F 96% 29.98 in 4.0 mi NE 4.6 mph - N/A   Light Drizzle
8:35 PM 48.7 °F 47.7 °F 96% 29.96 in 4.0 mi East 9.2 mph - N/A   Light Drizzle
8:36 PM 48.7 °F 47.7 °F 96% 29.96 in 4.0 mi East 9.2 mph - N/A   Light Drizzle
8:55 PM 49.1 °F 48.2 °F 97% 29.96 in 3.0 mi East 6.9 mph - N/A   Drizzle
9:15 PM 49.5 °F 48.2 °F 95% 29.96 in 5.0 mi East 9.2 mph - N/A   Light Drizzle
9:16 PM 49.6 °F 48.2 °F 95% 29.96 in 7.0 mi East 9.2 mph - N/A   Light Drizzle
9:35 PM 50.0 °F 48.2 °F 94% 29.98 in 10.0 mi East 6.9 mph - N/A   Overcast
9:55 PM 50.0 °F 48.0 °F 93% 29.98 in 7.0 mi East 8.1 mph - N/A Rain Rain
9:56 PM 50.0 °F 48.0 °F 93% 29.98 in 7.0 mi East 8.1 mph - N/A Rain Rain
10:15 PM 49.8 °F 48.4 °F 95% 29.98 in 4.0 mi Calm Calm - N/A   Drizzle
10:16 PM 49.6 °F 48.4 °F 95% 29.98 in 4.0 mi Calm Calm - N/A   Drizzle
10:35 PM 49.6 °F 48.4 °F 95% 29.98 in 4.0 mi ENE 3.5 mph - N/A   Drizzle
10:55 PM 49.5 °F 48.2 °F 95% 29.97 in 3.0 mi East 8.1 mph - N/A   Drizzle
10:56 PM 49.5 °F 48.2 °F 95% 29.97 in 3.0 mi East 8.1 mph - N/A   Light Drizzle
11:35 PM 49.1 °F 47.8 °F 95% 29.97 in 2.5 mi East 6.9 mph - N/A   Light Drizzle
11:36 PM 49.1 °F 47.7 °F 95% 29.97 in 2.5 mi East 6.9 mph - N/A   Light Drizzle
11:55 PM 49.1 °F 47.7 °F 95% 29.97 in 3.0 mi East 5.8 mph - N/A   Drizzle
11:56 PM 49.1 °F 47.7 °F 95% 29.97 in 3.0 mi East 4.6 mph - N/A   Drizzle